[[{"header":{"parameterUnit":"m.s-1","parameterCategory":1,"la1":30.2991,"la2":30.254,"lo1":-89.0895,"lo2":-89.0444,"dy":0.0017,"dx":0.0017,"nx":28,"ny":28,"refTime":"2024-10-17T21:00:00:Z","depth":0,"parameterNumber":2,"parameterNumberName":"U-component_of_WINDS"},"data":[0,0,0,0,0,0,0,0,0,0,0,0,0,0,0,0,0,0,0,0,0,0,0,0,0,0,0,0,0,0,0,0,0,0,0,0,0,0,0,0,0,0,0,0,0,0,0,0,0,0,0,0,0,0,0,0,0,0,-5.1259,-5.126,0,-5.1287,-5.1288,-5.1288,-5.1091,-5.1085,-5.108,-5.1075,-5.1105,-5.1111,-5.1117,0,0,0,0,0,0,0,0,0,0,0,0,0,-5.1036,-5.1041,-5.1259,-5.126,-5.126,-5.1287,-5.1288,-5.1288,-5.1092,-5.1085,-5.1078,-5.1072,-5.1103,-5.111,-5.1117,0,0,0,0,0,0,0,0,0,0,0,0,0,-5.1106,-5.1043,-5.1259,-5.1165,-5.1157,-5.1287,-5.1288,-5.1288,-5.1093,-5.1085,-5.1077,-5.1069,-5.1101,-5.1109,-5.1118,-5.134,0,0,-5.1146,-5.115,0,0,0,0,0,0,0,0,-5.1102,-5.1114,-5.1179,-5.1172,-5.1163,-5.1177,-5.122,-5.1306,-5.1095,-5.1118,-5.1074,-5.1065,-5.1136,-5.1141,-5.1165,-5.1342,-5.1343,-5.1147,-5.1152,-5.1156,-5.1158,0,0,0,0,0,0,0,-5.1097,-5.1112,-5.127,-5.118,-5.1171,-5.1122,-5.1123,-5.1235,-5.1173,-5.1115,-5.1101,-5.1107,-5.113,-5.1157,-5.1164,-5.1343,-5.1146,-5.1154,-5.116,-5.1163,-5.1701,-5.171,0,0,0,0,0,0,-5.1105,-5.1109,-5.1269,-5.1271,-5.1111,-5.1133,-5.1133,-5.1181,-5.1171,-5.1162,-5.1114,-5.1097,-5.1146,-5.1154,-5.1165,-5.1422,-5.1156,-5.1164,-5.1169,-5.1692,-5.1703,-5.1713,0,0,0,0,0,0,-5.1101,-5.1121,-5.1268,-5.1186,-5.1201,-5.1145,-5.12,-5.1186,-5.1212,-5.117,-5.1158,-5.1153,-5.1139,-5.1152,-5.1297,-5.142,-5.1168,-5.1176,-5.1682,-5.1696,-5.1708,-5.194,0,0,0,0,0,0,-5.1096,-5.1121,-5.1205,-5.119,-5.1206,-5.1401,-5.1208,-5.1193,-5.1228,-5.1207,-5.1204,-5.1195,-5.1134,-5.1285,-5.1306,-5.1428,-5.1183,-5.1671,-5.1688,-5.1704,-5.1921,-5.196,-5.1993,0,0,0,0,0,-5.1088,-5.127,-5.121,-5.1231,-5.131,-5.1409,-5.1418,-5.1344,-5.1239,-5.1322,-5.1295,-5.1195,-5.1404,-5.1302,-5.1324,-5.145,-5.1663,-5.1683,-5.1703,-5.1905,-5.1952,-5.1992,0,0,0,0,0,0,-5.1302,-5.1266,-5.1199,-5.1382,-5.14,-5.1375,-5.1478,-5.1396,-5.1445,-5.1423,-5.1329,-5.133,-5.1491,-5.1485,-5.1372,-5.1664,-5.1515,-5.154,-5.1661,-5.1706,-5.1741,-5.1738,-5.1191,0,0,0,0,0,-5.137,-5.1453,-5.1417,-5.1582,-5.1594,-5.1536,-5.1576,-5.1516,-5.1531,-5.1538,-5.1521,-5.154,-5.1609,-5.1657,-5.1719,-5.192,-5.1915,-5.2018,-5.2053,-5.2083,-5.2106,-5.221,-5.2255,-5.1779,-5.1779,-5.1778,0,0,-5.1512,-5.1503,-5.1561,-5.1624,-5.1631,-5.1719,-5.1543,-5.1644,-5.1708,-5.1553,-5.1689,-5.1678,-5.1693,-5.1867,-5.1942,-5.1867,-5.2236,-5.2109,-5.2133,-5.2139,-5.2235,-5.228,-5.2321,-5.1792,-5.179,-5.1788,0,0,-5.1815,-5.1817,-5.1953,-5.1963,-5.1975,-5.1935,-5.1968,-5.1956,-5.1943,-5.2077,-5.1963,-5.2038,-5.216,-5.2174,-5.2198,-5.2506,-5.2415,-5.2529,-5.2716,-5.2818,-5.2856,-5.2889,-5.2997,-5.3037,-5.2552,-5.2553,-5.2553,0,-5.1989,-5.2117,-5.2033,-5.2141,-5.2172,-5.2036,-5.2172,-5.2187,-5.222,-5.2244,-5.2159,-5.2308,-5.2308,-5.2483,-5.2558,-5.2582,-5.2616,-5.2528,-5.2857,-5.2889,-5.2918,-5.3021,-5.3062,-5.2566,-5.2565,-5.2563,-5.2562,0,-5.233,-5.2421,-5.2529,-5.2563,-5.2606,-5.2728,-5.2663,-5.2717,-5.2654,-5.2623,-5.2761,-5.2757,-5.2814,-5.2851,-5.2792,-5.3018,-5.297,-5.2873,-5.2721,-5.2979,-5.3073,-5.3112,-5.2586,-5.2581,-5.2577,-5.2573,0,0,-5.2768,-5.2754,-5.2795,-5.2808,-5.2811,-5.2879,-5.2995,-5.3051,-5.3098,-5.3125,-5.3219,-5.3326,-5.3235,-5.3262,-5.3202,-5.3293,-5.3536,-5.3184,-5.3183,-5.3248,-5.3783,-5.3855,-5.3902,-5.3476,-5.3483,-5.3489,-5.3781,0,-5.3063,-5.3259,-5.3186,-5.3387,-5.3469,-5.3341,-5.3441,-5.3454,-5.3429,-5.3494,-5.3465,-5.3541,-5.3417,-5.3432,-5.3516,-5.3489,-5.3642,-5.3467,-5.3562,-5.3566,-5.3561,-5.3951,-5.4028,-5.4304,-5.3818,-5.3824,-5.3828,0,-5.3432,-5.3473,-5.3682,-5.367,-5.3702,-5.3794,-5.3838,-5.3902,-5.3915,-5.3889,-5.3919,-5.384,-5.3952,-5.3802,-5.3955,-5.3838,-5.3873,-5.3866,-5.3874,-5.3879,-5.3712,-5.3966,-5.4391,-5.4432,-5.3886,-5.3882,-5.3877,0,-5.3729,-5.3836,-5.3975,-5.399,-5.398,-5.4047,-5.4047,-5.405,-5.4088,-5.4127,-5.415,-5.4203,-5.4232,-5.4274,-5.4211,-5.4108,-5.4374,-5.4218,-5.4355,-5.4357,-5.4415,-5.4413,-5.4851,-5.4441,-5.4441,-5.444,-5.4439,0,-5.4064,-5.4197,-5.4107,-5.4193,-5.4337,-5.4253,-5.4399,-5.4383,-5.4388,-5.4467,-5.436,-5.4438,-5.435,-5.4419,-5.4371,-5.4504,-5.4519,-5.4501,-5.4486,-5.451,-5.4512,-5.453,-5.4509,-5.4451,-5.4448,-5.4446,-5.4444,0,-5.4419,-5.4365,-5.4507,-5.4486,-5.4483,-5.4591,-5.4572,-5.465,-5.4616,-5.4719,-5.4738,-5.4685,-5.4761,-5.4702,-5.4777,-5.4744,-5.492,-5.4879,-5.4916,-5.4904,-5.5044,-5.5031,-5.5508,-5.5566,-5.5121,-5.5126,-5.5129,0,-5.4636,-5.4734,-5.4724,-5.4769,-5.4774,-5.4849,-5.4887,-5.4808,-5.4852,-5.4872,-5.4948,-5.5014,-5.5063,-5.519,-5.5158,-5.5215,-5.5173,-5.5337,-5.5181,-5.5201,-5.5174,-5.5168,-5.5177,-5.5368,-5.5373,-5.5377,-5.5381,0,-5.5026,-5.4994,-5.5052,-5.5101,-5.5149,-5.5184,-5.521,-5.5254,-5.5173,-5.5228,-5.5303,-5.5341,-5.5416,-5.5484,-5.5529,-5.5527,-5.5442,-5.543,-5.5465,-5.5489,-5.5505,-5.5497,-5.5,-5.5419,-5.5416,-5.5413,-5.5411,-5.5409,-5.5317,-5.5398,-5.5402,-5.547,-5.5482,-5.5509,-5.558,-5.5555,-5.5617,-5.5671,-5.5622,-5.5712,-5.5721,-5.5773,-5.5782,-5.5852,-5.5785,-5.5835,-5.5847,-5.586,-5.588,-5.5496,-5.586,-5.5859,-5.5858,-5.5857,-5.5856,0,-5.5699,-5.5696,-5.5759,-5.5799,-5.5853,-5.5766,-5.5791,-5.5842,-5.5923,-5.5938,-5.5988,-5.6074,-5.6138,-5.6112,-5.6169,-5.623,-5.6192,-5.6247,-5.6241,-5.6242,-5.5938,-5.5901,-5.6277,-5.6277,-5.6277,-5.6277,-5.6277,-5.6277,-5.5904,-5.6036,-5.6006,-5.6142,-5.6137,-5.6225,-5.6246,-5.627,-5.6282,-5.6383,-5.6436,-5.6418,-5.6416,-5.6472,-5.6527,-5.6517,-5.6543,-5.6613,-5.6589,-5.6305,-5.6263,-5.6224,-5.6189,-5.6619,-5.662,-5.6887,-5.6889,-5.6891]},{"header":{"parameterUnit":"m.s-1","parameterCategory":1,"la1":30.2991,"la2":30.254,"lo1":-89.0895,"lo2":-89.0444,"dy":0.0017,"dx":0.0017,"nx":28,"ny":28,"refTime":"2024-10-17T21:00:00:Z","depth":0,"parameterNumber":3,"parameterNumberName":"V-component_of_WINDS"},"data":[0,0,0,0,0,0,0,0,0,0,0,0,0,0,0,0,0,0,0,0,0,0,0,0,0,0,0,0,0,0,0,0,0,0,0,0,0,0,0,0,0,0,0,0,0,0,0,0,0,0,0,0,0,0,0,0,0,0,-1.7452,-1.7452,0,-1.7464,-1.7464,-1.7464,-1.748,-1.748,-1.7481,-1.7481,-1.7491,-1.7491,-1.7491,0,0,0,0,0,0,0,0,0,0,0,0,0,-1.744,-1.744,-1.7452,-1.7452,-1.7452,-1.7463,-1.7464,-1.7464,-1.748,-1.748,-1.7481,-1.7481,-1.7491,-1.7491,-1.7491,0,0,0,0,0,0,0,0,0,0,0,0,0,-1.7448,-1.744,-1.7452,-1.7461,-1.7462,-1.7463,-1.7464,-1.7464,-1.748,-1.748,-1.7481,-1.7481,-1.7491,-1.7491,-1.7491,-1.7483,0,0,-1.7491,-1.7491,0,0,0,0,0,0,0,0,-1.7447,-1.7448,-1.746,-1.7461,-1.7462,-1.7471,-1.7463,-1.747,-1.748,-1.7473,-1.7481,-1.7481,-1.7484,-1.7485,-1.7486,-1.7484,-1.7484,-1.7491,-1.7491,-1.7491,-1.7491,0,0,0,0,0,0,0,-1.7447,-1.7448,-1.7456,-1.746,-1.7461,-1.7464,-1.7466,-1.7465,-1.7476,-1.7474,-1.7475,-1.7476,-1.7485,-1.7486,-1.7486,-1.7484,-1.7491,-1.7491,-1.7491,-1.7491,-1.7473,-1.7473,0,0,0,0,0,0,-1.7445,-1.7447,-1.7456,-1.7457,-1.7455,-1.7464,-1.7466,-1.7467,-1.7476,-1.7478,-1.7476,-1.7477,-1.7486,-1.7486,-1.7487,-1.7476,-1.7491,-1.7491,-1.7491,-1.7474,-1.7473,-1.7473,0,0,0,0,0,0,-1.7445,-1.7446,-1.7455,-1.7452,-1.7454,-1.7464,-1.7465,-1.7467,-1.7469,-1.7478,-1.748,-1.7475,-1.7486,-1.7487,-1.7483,-1.7477,-1.7491,-1.7491,-1.7474,-1.7474,-1.7473,-1.7456,0,0,0,0,0,0,-1.7444,-1.7445,-1.7443,-1.7452,-1.7454,-1.7453,-1.7465,-1.7467,-1.7469,-1.747,-1.7478,-1.7479,-1.7486,-1.7483,-1.7483,-1.7477,-1.7491,-1.7475,-1.7474,-1.7473,-1.7457,-1.7454,-1.7452,0,0,0,0,0,-1.7444,-1.7438,-1.7443,-1.7444,-1.7452,-1.7453,-1.7454,-1.7462,-1.7468,-1.7466,-1.7471,-1.7479,-1.7477,-1.7483,-1.7483,-1.7477,-1.7475,-1.7474,-1.7473,-1.7458,-1.7455,-1.7452,0,0,0,0,0,0,-1.7429,-1.744,-1.7445,-1.7443,-1.7446,-1.7455,-1.7452,-1.7459,-1.7461,-1.7462,-1.7473,-1.7474,-1.7469,-1.7473,-1.7478,-1.7468,-1.7477,-1.7476,-1.7466,-1.7463,-1.7461,-1.746,-1.7492,0,0,0,0,0,-1.7425,-1.7426,-1.7435,-1.7432,-1.7433,-1.7442,-1.7443,-1.7449,-1.7454,-1.7455,-1.7461,-1.7464,-1.7464,-1.7464,-1.7465,-1.7458,-1.7458,-1.7453,-1.7451,-1.7449,-1.7447,-1.7442,-1.7439,-1.7469,-1.7469,-1.7469,0,0,-1.7417,-1.7423,-1.7423,-1.7429,-1.7433,-1.7432,-1.7444,-1.7443,-1.7442,-1.7455,-1.7452,-1.7456,-1.746,-1.7454,-1.7452,-1.7457,-1.7439,-1.7447,-1.7446,-1.7445,-1.744,-1.7437,-1.7435,-1.7468,-1.7468,-1.7468,0,0,-1.7403,-1.7409,-1.7405,-1.7409,-1.7414,-1.742,-1.7419,-1.7426,-1.7429,-1.7426,-1.7435,-1.7434,-1.7434,-1.7436,-1.7437,-1.7421,-1.7428,-1.7421,-1.7409,-1.7403,-1.7401,-1.7399,-1.7391,-1.7389,-1.742,-1.742,-1.742,0,-1.7393,-1.7393,-1.7403,-1.7401,-1.7402,-1.7414,-1.7409,-1.7412,-1.7417,-1.7417,-1.7423,-1.7422,-1.7426,-1.7419,-1.7415,-1.7416,-1.7414,-1.742,-1.74,-1.7398,-1.7397,-1.739,-1.7387,-1.7419,-1.7419,-1.7419,-1.7419,0,-1.7379,-1.7379,-1.7376,-1.738,-1.7381,-1.7378,-1.7386,-1.7385,-1.7391,-1.7395,-1.7391,-1.7395,-1.7396,-1.7395,-1.7401,-1.7389,-1.7392,-1.7399,-1.7409,-1.7393,-1.7386,-1.7384,-1.7417,-1.7418,-1.7418,-1.7418,0,0,-1.7357,-1.7366,-1.7364,-1.7365,-1.7371,-1.737,-1.7367,-1.7368,-1.7366,-1.7369,-1.7365,-1.7364,-1.7369,-1.7371,-1.7376,-1.7371,-1.7356,-1.7379,-1.7379,-1.7373,-1.734,-1.7334,-1.7331,-1.736,-1.736,-1.7359,-1.7339,0,-1.7343,-1.7339,-1.7346,-1.7339,-1.7338,-1.7347,-1.7344,-1.7346,-1.735,-1.7348,-1.7352,-1.735,-1.7359,-1.7359,-1.7355,-1.7359,-1.7349,-1.736,-1.7355,-1.7355,-1.7353,-1.7328,-1.7322,-1.7303,-1.7337,-1.7337,-1.7337,0,-1.7327,-1.7328,-1.7321,-1.7325,-1.7324,-1.7321,-1.7321,-1.732,-1.7322,-1.7325,-1.7325,-1.7331,-1.7326,-1.7336,-1.7328,-1.7336,-1.7334,-1.7335,-1.7334,-1.7334,-1.7344,-1.7325,-1.7298,-1.7294,-1.7333,-1.7333,-1.7333,0,-1.731,-1.7309,-1.7304,-1.7305,-1.731,-1.7307,-1.7309,-1.7311,-1.731,-1.731,-1.7309,-1.7308,-1.7308,-1.7306,-1.7311,-1.7318,-1.7302,-1.7313,-1.7303,-1.7303,-1.7299,-1.7299,-1.7269,-1.7299,-1.73,-1.73,-1.73,0,-1.7293,-1.7288,-1.7296,-1.7293,-1.7287,-1.7294,-1.7288,-1.729,-1.7292,-1.7288,-1.7296,-1.7292,-1.73,-1.7297,-1.7301,-1.7292,-1.7292,-1.7293,-1.7294,-1.7292,-1.7292,-1.729,-1.7291,-1.7299,-1.7299,-1.7299,-1.7299,0,-1.7273,-1.7279,-1.7274,-1.7278,-1.7279,-1.7274,-1.7277,-1.7273,-1.7276,-1.7271,-1.7271,-1.7276,-1.7272,-1.7277,-1.7274,-1.7276,-1.7264,-1.7268,-1.7264,-1.7264,-1.7253,-1.7254,-1.7221,-1.7216,-1.7251,-1.725,-1.725,0,-1.7262,-1.7258,-1.7261,-1.7259,-1.726,-1.7257,-1.7256,-1.7263,-1.7261,-1.7261,-1.7257,-1.7254,-1.7251,-1.7244,-1.7247,-1.7243,-1.7246,-1.7235,-1.7246,-1.7243,-1.7244,-1.7244,-1.7242,-1.7232,-1.7232,-1.7232,-1.7231,0,-1.724,-1.7243,-1.7241,-1.7239,-1.7238,-1.7237,-1.7236,-1.7234,-1.7241,-1.7238,-1.7233,-1.7231,-1.7227,-1.7223,-1.722,-1.7221,-1.7226,-1.7228,-1.7225,-1.7222,-1.7219,-1.7219,-1.7256,-1.7229,-1.7229,-1.7229,-1.7229,-1.7229,-1.7224,-1.7219,-1.722,-1.7217,-1.7217,-1.7216,-1.7212,-1.7214,-1.7211,-1.7208,-1.7212,-1.7206,-1.7205,-1.7202,-1.7202,-1.7196,-1.7201,-1.7197,-1.7196,-1.7195,-1.7192,-1.7221,-1.7196,-1.7196,-1.7196,-1.7196,-1.7196,0,-1.7201,-1.7202,-1.7199,-1.7198,-1.7194,-1.72,-1.7199,-1.7196,-1.7191,-1.719,-1.7187,-1.718,-1.7176,-1.7177,-1.7173,-1.7168,-1.717,-1.7166,-1.7166,-1.7166,-1.719,-1.7192,-1.7164,-1.7164,-1.7164,-1.7164,-1.7164,-1.7164,-1.719,-1.7182,-1.7184,-1.7176,-1.7176,-1.7171,-1.7169,-1.7167,-1.7166,-1.7159,-1.7155,-1.7156,-1.7155,-1.715,-1.7145,-1.7146,-1.7143,-1.7138,-1.7139,-1.7161,-1.7164,-1.7167,-1.7169,-1.7138,-1.7138,-1.7115,-1.7115,-1.7115]}]]